Temp_Advection
nan nan nan nan nan nan nan nan nan nan nan nan nan nan nan nan nan nan nan nan nan nan nan nan nan nan nan nan nan nan nan nan nan nan nan nan nan nan nan nan nan nan nan nan nan nan nan nan nan
nan -0 -0 -0 -0 0 0 0 0 0 -1 -1 -1 -1 -1 -1 -1 -1 -0 0 0 0 -0 -0 -0 -0 -0 -0 -0 -0 -0 0 0 -0 -0 0 0 0 0 0 -0 -0 -0 0 0 -0 0 0 nan
nan -1 -0 -0 0 0 0 -0 -1 0 -1 -1 -1 -0 -1 -1 -1 -1 -1 -0 0 0 -0 -0 -0 -1 -1 0 -0 -0 -0 -0 -0 -0 -0 0 0 0 0 0 0 -0 -0 0 0 0 -0 -0 nan
nan -1 -1 -0 1 0 -0 0 -1 -1 -0 -0 -1 -0 -0 -2 -2 -1 -1 -0 -0 -1 -0 -0 0 -0 -1 0 0 -0 -0 -0 0 0 -0 -0 0 0 0 0 -0 -0 0 -0 0 0 -0 -0 nan
nan 0 -0 0 1 0 0 -0 -1 -1 -1 -1 -1 -0 -0 -1 -2 -1 -1 -0 -0 -1 -0 -0 0 0 -1 -0 -0 -0 -0 -0 -0 -0 0 0 0 0 0 0 0 -0 -0 0 0 0 0 -0 nan
nan -0 0 1 1 0 0 -1 -2 -1 -1 -1 -1 0 -0 -1 -1 -0 -0 -0 -0 -1 -1 -0 -0 0 -0 -0 -0 -1 -0 0 -0 -0 -0 0 0 0 0 0 -0 0 0 -0 -0 -0 0 -0 nan
nan -0 -0 0 0 0 0 -0 -1 -1 -1 -1 -1 0 1 -1 -2 -1 -0 -0 -0 -0 -1 -1 -0 -0 0 0 -0 -1 -1 0 0 -0 -0 0 0 -0 0 -0 -0 -0 0 0 0 -0 0 -0 nan
nan -0 -0 0 0 1 0 -0 -1 -2 -1 -1 -1 -0 0 0 -0 -1 -0 -0 0 -0 -0 -0 -0 -0 -0 -0 0 -1 -1 -0 -0 -0 -0 0 0 -0 0 -0 -0 -0 0 0 0 0 0 -0 nan
nan -0 1 0 -0 0 0 -0 -0 -1 -2 -0 -0 -1 -0 -1 -1 -1 -1 -1 -0 -0 -0 0 -0 -0 -1 -1 -0 0 -0 -1 -0 -1 -1 0 1 0 -0 -0 -0 -0 -0 0 0 0 0 -0 nan
nan -0 0 0 -0 -0 -0 -0 -1 -1 -1 -1 -1 0 0 -0 -1 -1 -1 -1 -1 -1 -0 0 0 -0 -0 -1 -0 -0 -0 0 0 0 -0 -1 -0 0 0 -0 -0 -0 0 0 -0 0 -0 0 nan
nan 0 1 -0 -1 -0 -0 -1 -1 -1 -1 -1 -1 -0 -0 -0 -1 -0 -0 -1 -0 -1 -1 -0 0 -0 -0 -0 -0 -0 -0 -0 -0 0 0 -0 -0 0 0 0 0 -0 -0 0 0 -0 -0 -0 nan
nan 2 -0 -0 -0 -0 -0 -0 -1 -1 -1 -1 -1 -0 -0 -0 -0 -0 -0 -0 -1 -1 -1 -0 0 -0 -0 0 -0 -0 0 -0 -0 -0 0 0 -0 -0 0 0 0 0 -0 0 0 0 -0 -0 nan
nan 1 -0 -0 0 -0 -1 -1 -1 -1 -1 -1 -0 -0 -0 -0 -0 -0 -0 -0 -1 -1 -0 -0 -0 -0 -0 -0 -0 -0 0 0 0 -0 -0 0 -0 -0 -0 0 0 0 -0 0 0 -0 0 -0 nan
nan 1 -0 -1 -0 0 -1 -0 -1 -1 -1 -1 -1 -0 -0 -0 -0 -0 -0 -0 -0 -0 -0 -0 -0 -0 -0 -0 -0 -0 -0 -0 -0 0 -0 -0 0 -0 -0 -0 -0 0 -0 -0 -0 -0 -0 -0 nan
nan -1 0 -0 -1 -0 0 -0 0 -0 -1 -0 -1 -0 -0 -1 -1 -1 -0 -0 0 0 -0 -0 -0 0 -0 -0 -0 -0 -0 -0 -0 -0 0 -0 -0 0 0 -0 -0 -0 0 0 -0 -0 0 -0 nan
nan -0 -1 0 -0 -0 -0 0 0 -0 -0 -0 -0 -0 -0 -0 -0 -1 -1 -0 -0 -0 -0 0 0 -0 0 0 0 0 0 -0 -0 0 0 -0 -0 -0 -0 -0 0 0 0 -0 -0 -0 -0 -0 nan
nan -0 -1 0 -0 -0 -0 -0 0 -0 -0 -0 -0 -0 -0 -0 -0 -0 -0 -1 -1 -0 -0 -0 -0 -0 -0 -0 0 0 -0 -0 0 0 -0 0 0 0 0 0 0 -0 -0 -0 -0 0 -0 -0 nan
nan -0 -1 -1 -0 -0 -0 -0 0 0 -0 -0 -0 -0 -0 -0 -0 -0 -0 -0 -0 -0 -0 -0 -0 -0 -0 -0 -0 -0 -0 -0 -0 -0 -0 0 0 0 0 -0 0 -0 -0 -0 0 0 -0 -0 nan
nan -1 -2 -2 -0 -0 0 -0 0 0 -0 -0 -0 -0 -0 -0 -0 -0 -0 -0 -0 -0 -1 -0 0 0 -0 -0 -0 -0 -0 -0 -0 -0 -0 -0 0 0 -0 -0 0 0 -0 -0 -0 -0 -0 0 nan
nan -1 0 0 0 -0 -0 0 0 -0 -0 -0 -0 -0 -1 -0 -0 -0 -0 -0 -0 -0 -0 -1 -0 -0 -0 0 0 -0 -0 0 -0 -0 -0 -0 -0 -0 0 0 0 0 0 -0 -0 0 -0 -0 nan
nan -1 -0 0 -2 0 0 0 0 0 0 -0 -1 -0 -1 -1 -1 -0 -0 -0 -0 -0 -0 -0 -0 -0 -0 0 -0 -0 -0 -0 -0 -0 -0 -0 -0 0 0 0 -0 -0 0 -0 0 0 0 -0 nan
nan 1 -2 -3 -3 -1 -1 0 0 0 0 0 -0 -0 -0 -1 -1 -1 -0 -0 -1 -0 -0 -0 -0 -0 -0 -0 -0 -0 0 -0 -0 -0 -0 0 0 -0 -0 0 0 0 -0 0 0 0 -0 -0 nan
nan -1 -3 -3 -0 -0 -1 -0 -0 0 -0 0 -0 -2 -1 -1 -1 -1 -1 -1 -0 -0 -0 -0 -0 -0 -0 -0 -0 -0 -0 -0 0 0 0 0 -0 0 0 0 0 0 0 0 0 0 -0 -0 nan
nan -1 -2 -2 -1 -0 -1 0 0 -0 -0 -0 -1 -1 -1 -1 -1 -1 -1 -0 -0 -0 -0 -0 -0 0 0 -0 -0 -0 -0 0 -0 0 0 -0 -0 -0 0 0 0 0 0 0 0 0 -0 -0 nan
nan -1 -0 -0 0 -1 -0 0 -1 -1 -1 -1 -1 -1 -0 -1 -1 -1 -0 -1 -0 -0 -0 -0 -0 0 -0 0 -0 -0 -0 -0 -0 -0 -0 -0 0 -0 0 0 0 -0 0 0 0 0 0 0 nan
nan -0 -0 -0 0 -1 0 0 -0 0 -0 -1 -1 -0 -0 -0 -1 -1 -0 -0 -0 0 -0 -0 0 0 0 0 -0 -0 -0 -0 -0 -0 0 0 0 0 0 0 0 0 0 -0 -0 0 0 0 nan
nan -0 -1 -0 -1 -0 -1 0 0 0 0 1 1 -0 -0 -0 -1 -1 -0 -0 -0 -0 0 0 0 0 0 0 0 0 -0 -0 0 0 0 0 0 0 0 0 0 0 -0 -0 0 0 0 0 nan
nan -2 -1 0 -0 -0 0 0 0 0 0 0 1 1 0 -0 -0 -0 -0 -0 -0 0 0 0 0 0 0 0 0 0 0 0 0 0 0 0 -0 0 0 0 0 -0 -1 -0 0 0 0 0 nan
nan -1 -0 -0 -0 -0 0 -0 -1 -0 -0 -0 0 1 -0 -0 -0 -0 -0 -0 -0 0 0 0 0 0 0 0 0 0 -0 0 0 0 0 -0 0 0 0 0 0 0 -0 -0 -0 0 0 0 nan
nan nan nan nan nan nan nan nan nan nan nan nan nan nan nan nan nan nan nan nan nan nan nan nan nan nan nan nan nan nan nan nan nan nan nan nan nan nan nan nan nan nan nan nan nan nan nan nan nan
Wind_Speed
7 9 7 6 1 1 4 5 7 13 19 30 33 21 20 17 8 12 23 14 16 16 18 18 16 15 13 6 10 14 20 23 25 26 26 32 30 26 20 21 20 17 15 15 15 15 19 22 25
7 6 5 5 2 4 2 14 7 18 26 31 35 31 30 19 27 27 23 15 16 19 19 19 19 19 20 16 15 18 22 25 27 29 32 32 28 23 21 20 20 16 16 16 16 20 22 26 25
13 14 11 2 3 4 6 12 12 22 31 32 29 33 21 21 33 27 29 24 13 22 20 20 22 24 23 21 21 21 24 28 29 29 33 32 24 22 22 20 17 15 16 19 21 21 22 24 26
17 24 12 3 11 8 13 11 22 25 31 26 25 15 29 29 37 35 33 16 18 23 21 20 23 27 27 28 26 25 25 28 32 29 32 30 26 22 20 18 16 17 20 21 19 19 22 23 23
5 9 4 5 10 7 15 18 30 21 28 27 34 22 27 33 39 38 25 13 22 22 21 20 23 27 30 26 23 22 23 27 27 28 28 27 27 22 17 17 18 20 20 20 19 18 20 22 22
3 4 3 6 9 11 13 24 32 28 30 29 28 25 23 29 37 27 19 16 18 19 19 20 21 24 29 32 26 23 23 26 25 25 28 28 21 18 17 20 20 19 19 19 17 15 16 19 20
6 3 3 8 8 15 13 24 19 22 27 21 31 17 21 24 34 24 17 17 20 19 18 18 19 22 23 27 31 28 26 25 24 25 27 23 20 21 22 22 21 19 18 17 15 15 14 15 17
7 4 3 10 6 11 15 22 26 28 25 34 33 9 15 28 23 22 21 18 18 19 20 18 16 20 21 23 28 28 30 29 26 24 24 25 25 26 21 20 18 17 15 15 15 15 15 14 15
7 3 6 12 10 9 22 16 14 26 37 23 20 32 26 26 28 30 27 25 17 16 14 17 15 17 21 21 22 25 30 31 31 30 29 29 24 22 17 15 15 14 14 13 14 15 15 14 14
6 3 10 10 15 13 19 19 23 31 28 30 32 28 22 21 29 26 24 22 17 14 14 16 14 17 18 19 20 21 23 25 27 27 27 21 18 15 15 12 13 14 14 12 10 13 12 7 4
8 3 13 15 26 19 12 21 28 26 17 24 29 28 24 23 23 19 17 17 16 16 18 15 14 18 18 16 14 14 19 20 22 23 19 16 10 14 12 10 12 12 10 12 12 6 2 2 2
4 19 14 18 19 19 9 23 17 26 27 27 25 24 21 22 22 24 21 19 22 22 19 18 13 15 13 8 14 16 15 11 15 15 15 14 9 6 7 5 7 7 7 5 6 3 1 2 6
5 8 22 20 14 21 22 24 25 27 30 26 23 19 18 18 19 20 23 24 22 23 18 15 14 16 13 7 12 15 16 10 11 8 11 9 11 6 2 4 2 3 3 2 2 3 6 7 7
6 8 16 17 22 17 19 20 25 28 28 26 22 19 15 26 26 24 27 23 19 20 17 19 17 18 14 13 16 13 12 14 12 12 11 16 13 11 8 4 2 2 4 4 5 4 6 6 7
25 9 1 11 12 4 18 14 15 29 27 22 22 20 13 29 24 26 24 25 23 21 19 18 16 17 12 15 15 15 9 13 7 9 9 16 11 10 10 11 11 9 6 7 6 10 12 11 12
8 6 6 5 9 2 12 7 11 29 25 20 17 22 23 19 16 17 20 19 27 19 18 13 9 16 15 13 12 17 8 9 7 8 7 11 11 9 9 8 6 5 9 8 9 11 14 13 12
11 7 8 5 6 5 3 9 12 27 22 20 20 23 21 21 16 11 21 25 21 15 9 11 9 8 9 5 17 11 14 10 10 9 6 7 5 6 4 5 8 8 10 14 14 11 9 9 10
8 9 11 6 8 5 7 10 12 22 21 18 23 21 22 22 17 15 22 20 16 12 12 13 9 7 5 6 10 9 11 11 9 10 9 6 3 4 8 5 8 9 12 7 8 9 10 12 11
10 17 14 16 11 12 9 13 13 20 22 20 22 20 24 23 19 18 18 17 14 10 18 16 13 14 9 6 11 8 6 8 9 7 7 6 4 6 10 9 8 8 10 7 7 9 11 11 13
18 14 5 9 17 8 13 12 10 13 20 26 26 23 27 26 25 21 24 21 18 16 13 19 17 13 10 9 8 7 9 9 6 6 7 7 6 3 5 7 5 8 7 11 11 10 11 12 9
15 7 5 2 12 7 17 6 9 8 17 26 27 27 25 31 30 29 27 29 24 22 20 17 18 15 13 11 11 7 6 6 11 9 8 4 6 7 7 8 7 10 11 11 10 8 8 9 4
12 15 19 17 13 4 9 3 4 8 7 15 24 32 27 29 31 33 29 31 30 27 24 21 16 15 15 16 12 8 7 11 10 6 5 6 5 3 8 8 9 8 7 8 9 9 8 11 6
5 28 28 19 14 0 8 6 6 9 7 8 15 32 31 30 31 33 31 30 30 28 27 24 18 14 17 19 16 11 12 8 8 11 6 10 8 8 6 8 8 8 9 9 9 9 10 11 9
10 13 19 16 10 2 10 3 5 9 10 8 14 15 28 34 32 29 29 27 29 29 27 24 21 16 14 18 20 17 12 13 11 10 9 8 8 6 7 8 10 10 9 9 9 11 12 13 9
12 8 4 6 4 5 5 3 8 12 9 10 13 15 12 28 35 28 25 30 25 27 28 23 21 18 14 20 22 20 15 16 16 15 13 10 9 10 11 13 10 8 7 10 10 13 11 5 5
7 6 5 5 3 7 8 0 2 9 21 28 23 18 17 11 29 28 28 25 27 24 24 22 18 17 15 18 21 23 20 17 17 19 18 15 12 11 10 14 12 10 12 13 13 6 6 4 6
3 7 14 9 7 5 5 3 7 9 9 14 21 18 25 21 27 21 26 25 25 24 22 18 15 15 12 15 21 22 20 20 17 15 14 13 14 17 16 12 13 12 16 15 10 6 8 7 8
14 16 7 3 3 4 7 6 6 7 7 10 12 25 29 24 19 18 19 21 20 19 19 17 15 14 12 11 18 23 23 21 19 17 16 20 17 16 18 18 17 19 19 14 9 8 11 8 8
3 8 4 7 3 5 4 3 9 8 9 10 17 30 28 26 22 18 18 15 14 13 15 14 14 12 13 13 14 15 17 22 22 21 22 24 22 20 20 20 21 21 18 16 13 10 13 10 9
6 4 8 5 6 3 4 4 9 9 8 23 20 25 27 23 20 20 18 16 13 11 14 13 10 12 9 8 8 11 15 18 19 17 17 18 22 25 23 24 23 19 19 18 16 14 15 14 12
Wind_Direction
166 134 125 159 308 137 64 59 77 71 76 78 73 80 77 59 91 114 131 129 119 104 98 88 75 60 59 83 136 145 144 147 147 139 136 133 129 128 124 127 129 124 124 122 134 124 118 116 117
57 23 213 214 96 76 97 107 111 96 103 96 91 87 79 91 102 129 127 121 105 112 103 88 70 62 68 78 122 138 144 147 144 137 135 135 128 125 126 127 127 125 121 122 121 120 119 120 115
316 321 292 223 64 63 116 128 166 98 93 88 90 80 94 121 126 123 125 123 110 115 107 90 73 65 75 83 108 127 138 144 142 142 141 138 129 125 127 126 126 123 123 120 120 118 120 121 116
353 301 257 168 98 112 107 99 118 97 98 96 100 83 94 105 126 124 130 131 116 119 108 92 79 72 82 88 97 116 131 140 144 145 142 135 132 124 118 123 123 124 123 122 122 120 125 129 124
8 242 259 80 62 47 104 119 107 98 94 90 100 103 97 117 121 130 136 109 119 121 112 101 90 79 80 90 94 109 126 141 141 146 145 138 134 123 121 118 125 129 125 126 124 120 124 131 128
275 271 360 85 96 71 75 87 99 100 104 105 98 103 111 129 126 121 120 94 100 113 117 107 101 89 83 86 91 106 115 126 135 138 138 133 128 120 122 128 128 126 127 124 119 114 121 129 136
336 314 277 103 79 117 119 121 122 120 121 114 124 118 128 120 127 124 124 100 97 105 115 113 109 105 99 93 88 94 108 124 129 141 137 126 125 124 121 128 129 126 122 120 117 115 115 118 127
265 265 230 103 118 103 117 94 109 128 125 131 131 134 133 124 130 121 132 115 102 102 106 109 112 107 106 102 99 93 105 105 115 128 133 127 126 117 115 121 126 122 120 121 120 114 109 111 121
212 304 97 125 129 106 98 105 100 119 133 142 121 129 135 132 124 122 123 125 112 111 111 104 101 103 105 106 110 109 106 114 110 110 117 118 114 107 104 112 114 116 119 121 119 118 111 115 128
242 251 113 101 110 110 132 136 111 94 98 103 112 127 141 143 140 140 132 137 143 147 138 121 97 117 101 109 117 116 119 116 114 122 113 113 122 113 109 102 113 113 117 117 122 128 112 90 114
282 104 79 110 116 128 148 129 116 115 114 121 130 143 149 161 157 146 138 152 161 138 147 143 121 108 119 112 124 128 126 124 124 123 138 127 136 122 110 124 104 107 122 115 119 136 119 72 76
330 117 130 95 107 149 122 120 113 121 124 131 138 149 163 169 157 152 150 150 150 139 138 164 146 122 146 152 127 136 137 127 141 143 139 135 124 119 102 97 84 109 80 143 141 160 57 340 285
172 107 106 108 140 95 92 105 112 117 127 135 143 156 173 162 152 161 149 153 148 149 153 160 149 145 160 142 151 153 161 145 138 144 156 158 144 140 271 87 72 41 66 164 130 185 277 264 322
335 144 112 111 66 107 115 117 116 128 133 139 152 165 173 152 154 157 163 160 159 160 152 167 162 165 170 163 157 159 176 189 177 170 167 171 161 146 175 192 207 259 256 253 245 194 268 254 279
60 32 90 108 93 52 117 116 128 135 135 153 166 167 146 143 144 162 165 164 155 169 174 181 198 209 188 188 177 162 181 186 199 198 193 176 175 180 174 208 219 235 263 270 303 258 259 256 262
58 52 332 150 103 359 109 132 138 139 143 165 168 137 131 127 130 142 151 156 163 159 178 200 164 200 193 193 181 171 202 207 221 200 178 196 187 187 221 240 223 231 247 266 274 259 272 258 267
38 344 281 149 128 129 115 142 143 144 153 168 135 130 130 138 146 149 152 151 152 149 152 177 176 141 155 142 169 176 203 223 209 212 199 182 202 227 252 244 207 249 259 257 260 275 265 276 273
183 270 273 255 169 179 144 139 151 153 158 153 142 145 143 147 152 168 154 160 163 158 157 185 184 161 155 152 161 196 219 226 238 243 236 216 226 239 266 290 239 268 278 267 233 258 258 266 262
218 194 227 192 175 154 159 151 158 162 158 156 157 159 158 164 171 173 175 178 176 173 169 174 191 183 168 160 174 191 199 189 202 198 210 227 211 232 256 267 269 260 265 290 275 259 285 276 267
226 244 340 123 178 173 165 155 159 166 164 168 167 173 175 175 180 180 182 182 189 190 187 178 192 205 186 167 185 201 211 199 195 199 194 211 219 225 269 277 287 253 272 283 282 284 274 281 281
230 184 174 98 1 114 133 134 151 187 162 172 178 180 188 182 184 187 188 194 193 197 200 198 195 204 175 176 199 182 138 186 179 196 208 252 207 219 247 268 281 268 272 262 255 261 282 283 299
67 102 92 33 46 322 333 170 162 172 197 179 184 184 187 190 192 193 191 198 197 204 206 207 209 197 187 179 206 218 217 185 210 224 233 224 245 270 218 246 280 278 283 256 255 258 277 284 274
135 92 90 100 133 234 316 108 222 166 208 196 207 186 190 194 191 196 198 200 205 206 210 209 214 211 198 193 191 203 192 197 209 214 216 220 269 287 275 254 260 283 297 288 283 282 279 277 269
148 107 106 96 109 309 264 133 211 182 191 189 207 212 200 195 189 194 203 193 202 207 207 210 215 220 212 198 195 205 207 209 212 219 222 238 253 279 273 275 270 295 295 280 273 273 279 287 256
82 58 19 49 10 241 188 79 218 198 184 169 192 209 188 186 190 190 191 191 191 202 203 208 217 219 218 213 200 207 204 210 218 222 227 229 244 263 283 256 271 270 269 275 281 285 276 249 262
50 100 90 41 0 300 25 76 198 145 156 166 177 180 134 123 179 186 184 178 185 193 198 203 215 224 229 229 216 216 220 225 230 235 243 252 232 249 254 251 252 280 300 284 285 285 186 203 242
204 66 131 140 240 274 216 109 71 128 142 154 145 123 127 128 141 151 177 175 180 184 197 205 217 233 243 237 226 225 228 235 238 240 237 233 242 246 249 252 248 265 288 285 280 270 219 242 236
154 147 81 19 205 315 146 145 181 171 161 165 139 129 134 136 141 143 163 173 182 188 199 209 222 235 250 257 233 234 236 240 243 246 241 247 248 242 240 244 243 255 271 280 275 254 237 241 255
167 144 160 123 143 238 157 202 190 177 173 156 138 138 146 147 142 148 162 171 178 191 201 213 223 234 245 257 242 236 248 255 260 257 249 248 243 244 232 235 240 250 262 273 272 255 245 251 241
197 149 136 147 173 154 161 250 145 157 131 93 127 143 141 138 139 147 145 155 162 185 203 217 229 238 251 262 247 252 252 260 267 270 268 263 257 247 245 261 255 252 259 268 270 260 251 252 242
Height
1484 1487 1488 1487 1499 1486 1495 1495 1481 1479 1482 1483 1483 1488 1495 1493 1500 1525 1522 1523 1524 1524 1525 1525 1524 1523 1520 1519 1520 1523 1525 1528 1532 1534 1536 1540 1543 1545 1548 1549 1551 1553 1555 1556 1558 1559 1560 1561 1562
1491 1494 1493 1485 1494 1511 1506 1483 1485 1481 1485 1486 1488 1493 1493 1505 1505 1515 1521 1525 1525 1525 1527 1526 1527 1524 1522 1520 1520 1523 1526 1529 1533 1536 1539 1543 1546 1548 1550 1552 1554 1556 1556 1558 1560 1561 1562 1564 1565
1491 1490 1491 1485 1486 1498 1497 1484 1485 1483 1486 1488 1492 1496 1500 1508 1511 1517 1523 1524 1525 1527 1529 1530 1529 1526 1525 1522 1522 1525 1528 1532 1535 1538 1541 1544 1548 1551 1552 1555 1557 1558 1558 1560 1562 1564 1565 1567 1568
1493 1485 1494 1490 1487 1481 1478 1480 1481 1486 1491 1493 1495 1502 1507 1509 1513 1517 1524 1525 1525 1529 1531 1531 1532 1530 1527 1526 1527 1529 1530 1535 1537 1537 1539 1545 1549 1554 1555 1557 1559 1560 1561 1562 1564 1566 1568 1569 1570
1505 1508 1498 1485 1480 1474 1474 1478 1482 1488 1492 1498 1500 1507 1509 1514 1516 1520 1523 1525 1526 1530 1532 1534 1535 1534 1531 1531 1532 1533 1534 1536 1539 1543 1544 1543 1551 1554 1557 1559 1560 1563 1563 1564 1566 1568 1570 1571 1572
1500 1499 1495 1495 1484 1477 1477 1484 1486 1491 1496 1504 1507 1509 1514 1519 1520 1524 1525 1527 1529 1531 1534 1536 1537 1537 1536 1537 1536 1537 1537 1540 1542 1545 1548 1549 1554 1556 1558 1561 1563 1565 1565 1566 1568 1570 1571 1572 1573
1507 1497 1494 1488 1485 1482 1482 1485 1487 1492 1496 1504 1509 1510 1517 1521 1523 1524 1527 1530 1532 1534 1536 1538 1539 1540 1541 1541 1540 1540 1541 1544 1546 1548 1551 1554 1558 1560 1561 1563 1565 1566 1567 1568 1570 1571 1573 1574 1574
1506 1504 1495 1486 1489 1491 1482 1486 1488 1490 1497 1504 1506 1514 1518 1523 1525 1527 1528 1532 1534 1537 1538 1539 1541 1543 1543 1544 1545 1546 1545 1546 1549 1552 1554 1558 1561 1563 1565 1566 1567 1568 1569 1570 1571 1573 1574 1574 1575
1503 1504 1493 1488 1487 1489 1486 1489 1489 1489 1496 1504 1506 1512 1519 1524 1526 1530 1533 1535 1537 1539 1540 1542 1543 1546 1548 1549 1550 1551 1551 1551 1553 1557 1559 1561 1564 1566 1567 1567 1568 1569 1570 1572 1573 1574 1574 1575 1576
1501 1493 1485 1478 1482 1487 1487 1488 1491 1495 1502 1508 1512 1518 1522 1525 1528 1530 1532 1535 1538 1541 1542 1543 1546 1550 1553 1553 1554 1556 1555 1555 1556 1559 1562 1565 1567 1567 1568 1568 1569 1570 1572 1573 1574 1574 1575 1576 1577
1494 1488 1479 1479 1482 1485 1484 1487 1491 1496 1507 1511 1513 1518 1523 1524 1527 1531 1534 1536 1538 1540 1543 1546 1548 1553 1552 1553 1555 1558 1559 1558 1560 1561 1564 1567 1567 1568 1569 1570 1569 1571 1573 1574 1575 1575 1576 1576 1575
1493 1475 1478 1480 1482 1484 1484 1487 1492 1498 1507 1513 1517 1520 1522 1524 1527 1530 1534 1538 1539 1541 1544 1546 1549 1553 1554 1553 1555 1558 1560 1560 1561 1563 1563 1566 1566 1568 1570 1571 1572 1574 1574 1575 1575 1576 1576 1575 1576
1483 1475 1478 1481 1483 1484 1485 1490 1496 1503 1508 1513 1518 1520 1522 1526 1529 1533 1535 1538 1541 1543 1546 1546 1550 1552 1554 1554 1557 1559 1561 1560 1561 1562 1563 1565 1568 1569 1570 1572 1573 1574 1575 1575 1575 1575 1575 1576 1577
1478 1476 1478 1482 1485 1486 1489 1493 1496 1505 1509 1514 1517 1519 1521 1524 1527 1532 1535 1538 1542 1544 1545 1547 1550 1554 1555 1556 1558 1559 1560 1561 1563 1563 1565 1566 1568 1569 1571 1572 1574 1574 1575 1576 1576 1575 1575 1575 1576
1479 1491 1481 1482 1484 1490 1491 1499 1501 1504 1509 1513 1516 1519 1522 1526 1529 1531 1534 1536 1540 1544 1545 1547 1549 1550 1553 1554 1557 1559 1559 1561 1562 1563 1565 1567 1568 1569 1570 1572 1574 1575 1575 1575 1574 1574 1574 1574 1574
1487 1504 1514 1488 1487 1493 1493 1515 1501 1505 1509 1512 1515 1520 1523 1527 1531 1533 1535 1538 1540 1542 1545 1547 1548 1549 1551 1554 1557 1559 1560 1561 1561 1563 1565 1566 1568 1569 1570 1571 1573 1573 1571 1570 1571 1571 1572 1571 1572
1519 1539 1518 1496 1487 1492 1497 1510 1502 1505 1509 1512 1516 1520 1524 1528 1532 1535 1535 1537 1540 1542 1544 1545 1547 1549 1552 1555 1558 1560 1562 1563 1564 1563 1563 1565 1567 1568 1570 1571 1571 1571 1569 1568 1569 1569 1569 1569 1569
1536 1533 1518 1504 1492 1491 1498 1502 1502 1505 1509 1512 1516 1520 1524 1528 1532 1535 1536 1537 1539 1541 1543 1545 1548 1550 1553 1556 1557 1559 1561 1562 1563 1564 1564 1565 1565 1566 1568 1569 1569 1568 1566 1564 1565 1565 1566 1566 1567
1493 1518 1512 1486 1484 1492 1498 1500 1501 1503 1507 1512 1515 1519 1523 1525 1529 1533 1535 1535 1537 1540 1542 1544 1547 1550 1553 1554 1555 1557 1558 1560 1562 1564 1565 1564 1565 1565 1567 1567 1566 1566 1564 1562 1562 1563 1563 1564 1564
1493 1501 1490 1478 1478 1484 1501 1504 1500 1501 1504 1507 1512 1515 1518 1522 1525 1528 1531 1532 1534 1536 1539 1544 1547 1549 1552 1552 1554 1555 1556 1558 1561 1563 1564 1564 1564 1564 1565 1565 1565 1563 1562 1562 1562 1562 1562 1561 1562
1486 1488 1487 1493 1489 1481 1493 1509 1505 1500 1502 1505 1507 1511 1514 1516 1519 1523 1527 1527 1529 1531 1534 1538 1543 1548 1550 1551 1553 1553 1554 1556 1557 1560 1561 1561 1561 1562 1563 1563 1563 1562 1561 1561 1560 1560 1559 1560 1561
1506 1475 1481 1499 1527 1552 1514 1538 1509 1503 1502 1501 1502 1504 1508 1512 1515 1518 1522 1524 1526 1528 1531 1534 1538 1543 1548 1549 1551 1551 1553 1555 1556 1557 1559 1559 1560 1559 1559 1560 1560 1561 1560 1559 1558 1558 1557 1557 1557
1487 1476 1490 1511 1536 1544 1511 1524 1514 1501 1506 1500 1497 1500 1504 1507 1509 1513 1517 1520 1523 1526 1528 1531 1535 1539 1544 1548 1549 1550 1552 1553 1555 1556 1556 1556 1556 1556 1556 1556 1558 1558 1558 1557 1556 1554 1554 1554 1554
1468 1480 1497 1511 1531 1562 1519 1512 1520 1507 1499 1496 1492 1495 1498 1501 1505 1509 1513 1519 1520 1523 1526 1529 1532 1536 1540 1544 1547 1548 1550 1552 1553 1553 1553 1554 1553 1553 1553 1554 1555 1554 1553 1552 1552 1551 1551 1551 1551
1470 1495 1532 1542 1561 1548 1512 1519 1508 1486 1485 1488 1489 1490 1492 1496 1502 1507 1512 1516 1519 1520 1523 1527 1530 1533 1536 1540 1542 1544 1546 1548 1549 1549 1550 1551 1550 1550 1550 1551 1551 1551 1550 1548 1548 1548 1547 1547 1547
1484 1497 1530 1560 1575 1542 1514 1517 1499 1475 1479 1483 1486 1488 1491 1494 1499 1506 1509 1513 1516 1518 1521 1526 1529 1532 1534 1536 1539 1541 1543 1544 1545 1546 1546 1546 1546 1547 1547 1547 1548 1548 1547 1546 1545 1545 1544 1544 1544
1486 1511 1506 1553 1553 1553 1520 1493 1479 1476 1479 1482 1484 1488 1493 1496 1502 1504 1508 1512 1515 1518 1520 1523 1528 1530 1532 1534 1536 1537 1539 1540 1541 1541 1542 1543 1543 1543 1543 1543 1542 1542 1543 1543 1542 1542 1541 1541 1542
1460 1483 1526 1543 1551 1550 1515 1512 1515 1489 1485 1482 1484 1489 1493 1497 1502 1505 1509 1513 1515 1519 1521 1524 1528 1530 1532 1533 1533 1534 1535 1536 1537 1537 1537 1538 1539 1539 1538 1536 1537 1537 1538 1538 1539 1539 1539 1539 1540
1471 1487 1494 1509 1522 1555 1537 1520 1481 1483 1480 1480 1484 1487 1491 1496 1501 1506 1510 1513 1517 1520 1523 1525 1528 1530 1531 1531 1532 1533 1534 1534 1534 1535 1534 1534 1533 1532 1532 1532 1533 1533 1534 1534 1535 1536 1536 1537 1537
1445 1460 1473 1522 1511 1515 1517 1515 1468 1473 1475 1476 1485 1489 1493 1497 1501 1506 1510 1514 1517 1519 1521 1523 1525 1527 1528 1529 1530 1529 1530 1531 1531 1531 1531 1531 1531 1533 1536 1539 1537 1534 1532 1531 1532 1533 1533 1532 1533